EW5035 Weather Reports


Display with metric or nautical units.
time (UTC)temp
F
wind
direction
speed
MPH
gust
MPH
rain 1hr
in
rain 24hr
in
rain mn
in
humidity
%
barometer
mb
20260904184035 66 134 3.0 7.0 0.00 0.00 0.00 45 1014.6
20260904183535 65 0 2.0 8.0 0.00 0.00 0.00 45 1014.6
20260904183111 65 134 1.0 8.0 0.00 0.00 0.00 46 1014.7
20260904182535 65 134 3.0 9.0 0.00 0.00 0.00 45 1014.7
20260904182035 65 134 2.0 9.0 0.00 0.00 0.00 47 1014.6
20260904181602 65 134 1.0 10.0 0.00 0.00 0.00 46 1014.6
20260904181035 65 134 6.0 10.0 0.00 0.00 0.00 46 1014.7
20260904180538 64 134 2.0 7.0 0.00 0.00 0.00 47 1014.6
20260904180110 64 134 1.0 9.0 0.00 0.00 0.00 48 1014.6
20260904175536 64 134 3.0 9.0 0.00 0.00 0.00 48 1014.6
20260904175037 64 134 4.0 8.0 0.00 0.00 0.00 48 1014.6
20260904174549 63 0 0.0 7.0 0.00 0.00 0.00 49 1014.5
20260904174034 63 134 3.0 8.0 0.00 0.00 0.00 49 1014.5
20260904173535 63 134 2.0 9.0 0.00 0.00 0.00 49 1014.5
20260904173059 63 134 2.0 10.0 0.00 0.00 0.00 50 1014.5
20260904172538 63 134 4.0 10.0 0.00 0.00 0.00 50 1014.5
20260904172035 62 134 4.0 9.0 0.00 0.00 0.00 50 1014.5
20260904171550 62 134 2.0 9.0 0.00 0.00 0.00 51 1014.5
20260904171034 62 134 3.0 9.0 0.00 0.00 0.00 52 1014.4
20260904170536 62 134 4.0 9.0 0.00 0.00 0.00 52 1014.4
20260904165534 61 134 2.0 9.0 0.00 0.00 0.00 52 1014.4
20260904165036 61 134 3.0 9.0 0.00 0.00 0.00 53 1014.2
20260904164604 61 134 4.0 9.0 0.00 0.00 0.00 53 1014.2
20260904164032 61 134 5.0 9.0 0.00 0.00 0.00 53 1014.2
20260904163536 61 134 3.0 9.0 0.00 0.00 0.00 55 1014.2
20260904163105 60 134 4.0 9.0 0.00 0.00 0.00 55 1014.3
20260904162536 60 134 4.0 9.0 0.00 0.00 0.00 56 1014.2
20260904162036 60 134 4.0 9.0 0.00 0.00 0.00 57 1014.2
20260904161603 59 134 5.0 9.0 0.00 0.00 0.00 56 1014.1
20260904161036 59 134 4.0 9.0 0.00 0.00 0.00 57 1014.1
20260904160538 59 134 4.0 8.0 0.00 0.00 0.00 60 1014.2
20260904160109 59 134 4.0 9.0 0.00 0.00 0.00 60 1014.2
20260904155536 59 134 5.0 9.0 0.00 0.01 0.00 63 1014.2
20260904155036 58 134 4.0 9.0 0.00 0.01 0.00 68 1014.2
20260904154559 58 134 5.0 10.0 0.00 0.01 0.00 71 1014.3
20260904154036 58 134 5.0 10.0 0.00 0.01 0.00 70 1014.2
20260904153536 57 134 4.0 10.0 0.00 0.01 0.00 72 1014.3
20260904153105 57 134 3.0 10.0 0.00 0.01 0.00 75 1014.4
20260904152535 57 134 5.0 10.0 0.00 0.01 0.00 75 1014.4
20260904152035 56 134 5.0 10.0 0.00 0.01 0.00 77 1014.4
20260904151601 56 134 5.0 9.0 0.00 0.01 0.00 79 1014.3
20260904151035 55 134 4.0 10.0 0.00 0.01 0.00 80 1014.1
20260904150536 55 134 6.0 10.0 0.00 0.01 0.00 81 1014.1
20260904150106 55 134 3.0 8.0 0.00 0.01 0.00 82 1014.0
20260904145535 54 134 4.0 8.0 0.00 0.01 0.00 82 1014.0
20260904145039 54 134 4.0 8.0 0.00 0.01 0.00 83 1013.8
20260904144556 53 134 3.0 8.0 0.00 0.01 0.00 84 1013.9
20260904144035 53 134 2.0 7.0 0.00 0.01 0.00 85 1013.8
20260904143536 52 134 1.0 5.0 0.00 0.01 0.00 85 1013.7
20260904143052 52 134 2.0 5.0 0.00 0.01 0.00 86 1013.6
20260904142535 51 0 0.0 4.0 0.00 0.01 0.00 86 1013.4
20260904142034 50 134 2.0 4.0 0.00 0.01 0.00 85 1013.4
20260904141601 50 134 2.0 4.0 0.00 0.01 0.00 85 1013.3
20260904141035 49 134 2.0 5.0 0.00 0.01 0.00 86 1013.3
20260904140540 48 134 2.0 5.0 0.00 0.01 0.00 85 1013.2
20260904140108 48 134 0.0 3.0 0.00 0.01 0.00 85 1013.2
20260904135535 47 0 0.0 3.0 0.00 0.01 0.00 83 1013.3
20260904135035 47 0 0.0 3.0 0.00 0.01 0.00 82 1013.2
20260904134557 47 134 0.0 3.0 0.00 0.01 0.00 83 1013.1
20260904134035 47 0 0.0 3.0 0.00 0.01 0.00 83 1013.2
20260904133535 47 134 0.0 4.0 0.00 0.01 0.00 83 1013.1
20260904133052 47 134 0.0 4.0 0.00 0.01 0.00 84 1013.0
20260904132536 46 134 1.0 4.0 0.00 0.01 0.00 84 1013.1
20260904132039 46 0 0.0 0.0 0.00 0.01 0.00 82 1013.1
20260904131600 46 0 0.0 0.0 0.00 0.01 0.00 82 1012.9
20260904131036 47 0 0.0 0.0 0.00 0.01 0.00 82 1012.9
20260904130538 47 0 0.0 1.0 0.00 0.01 0.00 82 1012.9
20260904130106 47 0 0.0 1.0 0.00 0.01 0.00 81 1012.7
20260904125535 48 0 0.0 2.0 0.00 0.01 0.00 81 1012.7
20260904125036 48 0 0.0 3.0 0.00 0.01 0.00 81 1012.4
20260904124606 49 0 0.0 3.0 0.00 0.01 0.00 81 1012.5
20260904124040 49 134 0.0 3.0 0.00 0.01 0.00 80 1012.4
20260904123538 49 134 0.0 3.0 0.00 0.01 0.00 80 1012.4
20260904123058 50 134 0.0 3.0 0.00 0.01 0.00 80 1012.4
20260904122536 50 0 0.0 0.0 0.00 0.01 0.00 80 1012.4
20260904122035 51 0 0.0 0.0 0.00 0.01 0.00 79 1012.3
20260904121553 51 0 0.0 0.0 0.00 0.01 0.00 78 1012.1
20260904121038 51 0 0.0 0.0 0.00 0.01 0.00 78 1012.0
20260904120535 52 0 0.0 0.0 0.00 0.01 0.00 78 1012.1
20260904120107 52 0 0.0 0.0 0.00 0.01 0.00 78 1012.0
20260904115535 52 0 0.0 0.0 0.00 0.01 0.00 78 1012.0
20260904115035 52 0 0.0 4.0 0.00 0.01 0.00 77 1012.0
20260904114559 53 0 0.0 4.0 0.00 0.01 0.00 77 1012.0
20260904114036 53 0 2.0 7.0 0.00 0.01 0.00 78 1011.8
20260904113538 53 134 3.0 7.0 0.00 0.01 0.00 78 1012.0
20260904113050 53 134 3.0 5.0 0.00 0.01 0.00 79 1011.9
20260904112535 52 134 2.0 5.0 0.00 0.01 0.00 79 1012.0
20260904112035 52 134 4.0 5.0 0.00 0.01 0.00 79 1012.0
20260904111603 52 134 4.0 5.0 0.00 0.01 0.00 80 1011.8
20260904111036 52 134 2.0 4.0 0.00 0.01 0.00 80 1011.7
20260904110535 52 134 1.0 5.0 0.00 0.01 0.00 80 1011.7
20260904110108 52 134 2.0 7.0 0.00 0.01 0.00 81 1011.6
20260904105539 52 134 3.0 7.0 0.00 0.01 0.00 80 1011.4
20260904105035 52 134 4.0 7.0 0.00 0.01 0.00 80 1011.4
20260904104550 52 134 4.0 7.0 0.00 0.01 0.00 80 1011.4
20260904104036 52 134 5.0 7.0 0.00 0.01 0.00 80 1011.5
20260904103535 52 134 3.0 5.0 0.00 0.01 0.00 79 1011.4
20260904103058 52 134 2.0 4.0 0.00 0.01 0.00 79 1011.3
20260904102535 52 134 2.0 5.0 0.00 0.01 0.00 79 1011.4
20260904102034 51 134 1.0 5.0 0.00 0.01 0.00 79 1011.3
20260904101553 51 134 2.0 4.0 0.00 0.01 0.00 79 1011.4
20260904101036 51 134 2.0 4.0 0.00 0.01 0.00 78 1011.2
20260904100535 52 0 0.0 2.0 0.00 0.01 0.00 78 1011.2
20260904100101 52 0 0.0 3.0 0.00 0.01 0.00 78 1011.1
20260904095536 52 0 0.0 3.0 0.00 0.02 0.00 78 1011.0
20260904095036 52 134 0.0 3.0 0.00 0.02 0.00 78 1010.9
20260904094601 52 0 0.0 3.0 0.00 0.02 0.00 78 1010.9
20260904094035 52 0 0.0 3.0 0.00 0.02 0.00 77 1010.8
20260904093535 52 0 0.0 0.0 0.00 0.02 0.00 77 1010.8
20260904093057 52 0 0.0 0.0 0.00 0.02 0.00 76 1010.7
20260904092535 52 0 0.0 1.0 0.00 0.02 0.00 76 1010.7
20260904092038 52 0 0.0 3.0 0.00 0.02 0.00 76 1010.6
20260904091554 52 0 0.0 4.0 0.00 0.02 0.00 76 1010.6
20260904091035 52 134 1.0 4.0 0.00 0.02 0.00 76 1010.7
20260904090535 52 0 0.0 4.0 0.00 0.02 0.00 76 1010.7
20260904090100 52 0 1.0 4.0 0.00 0.02 0.00 76 1010.7
20260904085534 52 134 2.0 4.0 0.00 0.04 0.00 75 1010.6
20260904085037 53 134 2.0 4.0 0.00 0.04 0.00 75 1010.6
20260904084558 52 134 2.0 4.0 0.00 0.04 0.00 75 1010.7
20260904084036 52 0 0.0 3.0 0.00 0.04 0.00 75 1010.7
20260904083535 53 134 0.0 3.0 0.00 0.04 0.00 74 1010.6
20260904083055 53 0 1.0 3.0 0.00 0.04 0.00 74 1010.6
20260904082535 53 134 1.0 3.0 0.00 0.04 0.00 74 1010.7
20260904082034 53 0 0.0 2.0 0.00 0.04 0.00 73 1010.6
20260904081601 53 0 0.0 2.0 0.00 0.04 0.00 73 1010.5
20260904081034 53 0 0.0 2.0 0.00 0.04 0.00 73 1010.4
20260904080534 54 0 0.0 0.0 0.00 0.04 0.00 72 1010.2
20260904080056 54 0 0.0 0.0 0.00 0.04 0.00 72 1010.5
20260904075536 54 0 0.0 0.0 0.00 0.09 0.00 72 1010.4
20260904075036 54 0 0.0 0.0 0.00 0.09 0.00 71 1010.5
20260904074558 54 0 0.0 0.0 0.00 0.09 0.00 71 1010.5
20260904074035 54 0 0.0 2.0 0.00 0.09 0.00 70 1010.4
20260904073539 55 0 0.0 4.0 0.00 0.09 0.00 70 1010.5
20260904073056 55 0 1.0 4.0 0.00 0.09 0.00 70 1010.5
20260904072534 54 134 2.0 4.0 0.00 0.09 0.00 71 1010.3
20260904072037 54 134 3.0 7.0 0.00 0.09 0.00 71 1010.4
20260904071552 54 134 3.0 7.0 0.00 0.09 0.00 71 1010.5
20260904071035 55 134 2.0 5.0 0.00 0.09 0.00 71 1010.4
20260904070537 54 134 2.0 5.0 0.00 0.09 0.00 72 1010.3
20260904065535 54 134 2.0 4.0 0.00 0.09 0.09 72 1010.4
20260904065035 55 134 0.0 0.0 0.00 0.09 0.09 71 1010.6
20260904064557 55 0 0.0 3.0 0.00 0.09 0.09 70 1010.7
20260904064035 55 0 0.0 3.0 0.00 0.09 0.09 70 1010.6
20260904063538 55 134 0.0 3.0 0.00 0.09 0.09 70 1010.6
20260904063100 55 0 0.0 3.0 0.00 0.09 0.09 70 1010.6
20260904062534 55 134 1.0 3.0 0.00 0.09 0.09 69 1010.5
20260904062035 55 0 0.0 2.0 0.00 0.09 0.09 69 1010.5
20260904061552 55 134 0.0 5.0 0.00 0.09 0.09 69 1010.5
20260904061036 55 0 1.0 5.0 0.00 0.09 0.09 69 1010.3
20260904060539 56 134 2.0 5.0 0.00 0.09 0.09 68 1010.3
20260904060104 56 134 2.0 7.0 0.00 0.09 0.09 68 1010.3
20260904055535 56 134 2.0 8.0 0.00 0.09 0.09 68 1010.3
20260904055035 56 134 4.0 8.0 0.00 0.09 0.09 68 1010.3
20260904054558 56 134 4.0 9.0 0.00 0.09 0.09 68 1010.4
20260904054035 56 134 4.0 9.0 0.00 0.09 0.09 67 1010.4
20260904053536 56 134 6.0 10.0 0.00 0.09 0.09 67 1010.3
20260904053105 56 134 5.0 10.0 0.00 0.09 0.09 66 1010.4
20260904052536 56 134 7.0 10.0 0.00 0.09 0.09 66 1010.6
20260904052035 56 134 4.0 8.0 0.00 0.09 0.09 65 1010.4
20260904051623 57 134 4.0 10.0 0.00 0.09 0.09 65 1010.3
20260904051035 57 134 5.0 10.0 0.00 0.09 0.09 65 1010.6
20260904050536 57 134 5.0 10.0 0.00 0.09 0.09 64 1010.6
20260904050107 57 134 4.0 9.0 0.00 0.09 0.09 63 1010.3
20260904045535 57 134 4.0 9.0 0.00 0.09 0.09 63 1010.2
20260904045035 58 134 5.0 9.0 0.00 0.09 0.09 63 1010.2
20260904044600 58 134 7.0 11.0 0.00 0.09 0.09 62 1010.3
20260904044035 58 134 7.0 11.0 0.00 0.09 0.09 61 1010.2
20260904043537 58 134 6.0 10.0 0.00 0.09 0.09 60 1010.2
20260904043105 59 134 7.0 10.0 0.00 0.09 0.09 60 1010.0
20260904042536 59 134 5.0 12.0 0.00 0.09 0.09 60 1010.1
20260904042035 59 134 7.0 12.0 0.00 0.09 0.09 60 1010.0
20260904041604 59 134 8.0 11.0 0.00 0.09 0.09 59 1010.1
20260904041035 60 134 3.0 9.0 0.00 0.09 0.09 60 1010.2
20260904040537 60 134 6.0 11.0 0.00 0.09 0.09 59 1010.1
20260904040103 60 134 6.0 13.0 0.00 0.09 0.09 58 1010.0
20260904035536 60 134 9.0 14.0 0.00 0.09 0.09 57 1010.0
20260904035035 61 134 8.0 14.0 0.00 0.09 0.09 56 1009.9
20260904034556 61 142 10.0 13.0 0.00 0.09 0.09 55 1009.8
20260904034035 61 157 9.0 13.0 0.00 0.09 0.09 55 1009.8
20260904033538 61 168 5.0 9.0 0.00 0.09 0.09 56 1009.9
20260904033051 60 201 5.0 8.0 0.00 0.09 0.09 58 1009.7
20260904032539 60 0 0.0 3.0 0.00 0.09 0.09 60 1009.7
20260904032038 60 0 1.0 3.0 0.00 0.09 0.09 60 1009.6
20260904031554 60 0 0.0 2.0 0.00 0.09 0.09 58 1009.6
20260904031037 60 0 0.0 3.0 0.00 0.09 0.09 59 1009.5
20260904030535 60 0 1.0 3.0 0.00 0.09 0.09 59 1009.4
20260904030108 60 201 1.0 3.0 0.00 0.09 0.09 59 1009.3
20260904025535 60 201 0.0 2.0 0.00 0.09 0.09 58 1009.3
20260904025036 60 0 0.0 4.0 0.00 0.09 0.09 58 1009.3
20260904024552 61 201 1.0 4.0 0.00 0.09 0.09 56 1009.2
20260904024039 61 201 2.0 4.0 0.00 0.09 0.09 55 1009.2
20260904023536 61 201 0.0 0.0 0.00 0.09 0.09 56 1009.2
20260904023059 61 0 0.0 0.0 0.00 0.09 0.09 56 1009.2
20260904022536 61 0 0.0 0.0 0.00 0.09 0.09 55 1009.2
20260904022037 61 0 0.0 1.0 0.00 0.09 0.09 55 1009.3
20260904021604 61 0 0.0 3.0 0.00 0.09 0.09 55 1009.3
20260904021035 62 0 0.0 3.0 0.00 0.09 0.09 55 1009.3
20260904020535 62 201 2.0 5.0 0.00 0.09 0.09 54 1009.4
20260904020100 62 201 2.0 5.0 0.00 0.09 0.09 53 1009.3
20260904015537 62 201 3.0 5.0 0.00 0.09 0.09 52 1009.4
20260904015039 63 201 1.0 3.0 0.00 0.09 0.09 53 1009.5
20260904014613 63 0 0.0 0.0 0.00 0.09 0.09 53 1009.5
20260904014036 63 0 0.0 3.0 0.00 0.09 0.09 54 1009.5
20260904013535 64 0 0.0 3.0 0.00 0.09 0.09 52 1009.4
20260904013051 64 201 0.0 3.0 0.00 0.09 0.09 49 1009.3
20260904012535 64 0 0.0 3.0 0.00 0.09 0.09 47 1009.2
20260904012031 64 0 0.0 4.0 0.00 0.09 0.09 47 1009.2
20260904011551 64 201 2.0 4.0 0.00 0.09 0.09 47 1009.2
20260904011030 64 201 2.0 5.0 0.00 0.09 0.09 46 1009.2
20260904010531 64 201 2.0 5.0 0.00 0.09 0.09 46 1009.2
20260904010049 64 201 3.0 6.0 0.00 0.09 0.09 46 1009.3
20260904005533 64 201 2.0 6.0 0.00 0.09 0.09 45 1009.3
20260904005035 64 201 4.0 6.0 0.00 0.09 0.09 45 1009.3
20260904004557 64 201 4.0 6.0 0.00 0.09 0.09 45 1009.5
20260904004034 64 201 4.0 6.0 0.00 0.09 0.09 45 1009.5
20260904003533 65 201 3.0 6.0 0.00 0.09 0.09 45 1009.5
20260904003105 65 201 3.0 6.0 0.00 0.09 0.09 46 1009.6
20260904002534 65 201 4.0 6.0 0.00 0.09 0.09 45 1009.7
20260904002031 65 201 1.0 6.0 0.00 0.09 0.09 45 1009.6
20260904001602 65 0 0.0 8.0 0.00 0.09 0.09 43 1009.7
20260904001032 65 201 4.0 8.0 0.00 0.09 0.09 43 1009.7
20260904000535 65 201 3.0 6.0 0.00 0.09 0.09 43 1009.7
20260904000059 65 201 2.0 8.0 0.00 0.09 0.09 43 1009.7
20260903235535 65 201 3.0 8.0 0.00 0.09 0.09 43 1009.8
20260903235031 65 201 1.0 5.0 0.00 0.09 0.09 43 1009.7
20260903234558 65 201 1.0 5.0 0.00 0.09 0.09 43 1009.8
20260903234031 65 201 2.0 8.0 0.00 0.09 0.09 42 1009.9
20260903233534 65 201 3.0 8.0 0.00 0.09 0.09 42 1009.8
20260903233053 65 201 3.0 10.0 0.00 0.09 0.09 42 1009.9
20260903232533 65 0 2.0 10.0 0.00 0.09 0.09 42 1009.8
20260903232038 65 201 5.0 10.0 0.00 0.09 0.09 42 1009.9
20260903231607 65 201 0.0 8.0 0.00 0.09 0.09 43 1009.9
20260903231035 65 0 2.0 10.0 0.00 0.09 0.09 42 1009.9
20260903230530 65 201 5.0 13.0 0.00 0.09 0.09 42 1009.9
20260903230106 65 201 8.0 13.0 0.00 0.09 0.09 41 1010.0
20260903225534 65 192 3.0 8.0 0.00 0.09 0.09 42 1010.1
20260903225030 65 192 3.0 7.0 0.00 0.09 0.09 42 1010.1
20260903224555 65 192 2.0 8.0 0.00 0.09 0.09 42 1010.2
20260903224031 65 192 4.0 8.0 0.00 0.09 0.09 43 1010.2
20260903223535 66 192 4.0 7.0 0.00 0.09 0.09 42 1010.2
20260903223052 65 192 0.0 7.0 0.00 0.09 0.09 42 1010.2
20260903222537 65 192 3.0 10.0 0.00 0.09 0.09 42 1010.4
20260903222038 65 192 3.0 10.0 0.00 0.09 0.09 43 1010.4
20260903221601 65 191 1.0 10.0 0.00 0.09 0.09 42 1010.4
20260903221035 64 0 4.0 10.0 0.00 0.09 0.09 42 1010.6
20260903220535 65 191 4.0 9.0 0.00 0.09 0.09 42 1010.6
20260903220120 65 191 5.0 10.0 0.00 0.09 0.09 42 1010.5
20260903215537 65 192 7.0 10.0 0.00 0.09 0.09 43 1010.6
20260903215036 65 192 1.0 9.0 0.00 0.09 0.09 43 1010.6
20260903214556 65 192 4.0 9.0 0.00 0.09 0.09 42 1010.8
20260903214037 64 192 5.0 11.0 0.00 0.09 0.09 43 1010.8
20260903213536 64 192 2.0 11.0 0.00 0.09 0.09 43 1010.8
20260903213053 64 192 6.0 11.0 0.00 0.09 0.09 41 1010.9
20260903212537 64 192 7.0 13.0 0.00 0.09 0.09 41 1011.1
20260903212037 64 188 8.0 13.0 0.00 0.09 0.09 43 1011.2
20260903211605 64 190 6.0 13.0 0.00 0.09 0.09 42 1011.2
20260903211037 64 190 8.0 13.0 0.00 0.09 0.09 42 1011.3
20260903210535 64 200 3.0 11.0 0.00 0.09 0.09 42 1011.4
20260903210113 64 200 8.0 13.0 0.00 0.09 0.09 42 1011.3
20260903205535 64 186 7.0 13.0 0.00 0.09 0.09 42 1011.3
20260903205035 64 196 10.0 13.0 0.00 0.09 0.09 42 1011.3
20260903204557 64 195 7.0 10.0 0.00 0.09 0.09 43 1011.3
20260903204035 64 197 5.0 10.0 0.00 0.09 0.09 43 1011.3
20260903203535 64 197 7.0 13.0 0.00 0.09 0.09 42 1011.4
20260903203053 64 198 8.0 13.0 0.00 0.09 0.09 42 1011.3
20260903202537 64 199 5.0 12.0 0.00 0.09 0.09 44 1011.0
20260903202035 64 219 4.0 12.0 0.00 0.09 0.09 43 1011.0
20260903201601 64 219 6.0 15.0 0.00 0.09 0.09 42 1011.2
20260903201037 64 230 7.0 15.0 0.00 0.09 0.09 45 1011.3
20260903200535 63 225 7.0 15.0 0.00 0.09 0.09 43 1011.5
20260903200054 64 236 11.0 15.0 0.00 0.09 0.09 43 1011.5
20260903195537 63 168 10.0 15.0 0.00 0.09 0.09 44 1011.5
20260903195036 63 201 6.0 16.0 0.00 0.09 0.09 45 1011.6
20260903194552 63 203 9.0 16.0 0.00 0.09 0.09 43 1011.7
20260903194039 63 209 9.0 15.0 0.00 0.09 0.09 43 1011.7
20260903193535 63 185 7.0 18.0 0.00 0.09 0.09 48 1011.7
20260903193100 63 155 10.0 18.0 0.00 0.09 0.09 49 1011.7
20260903192531 63 188 7.0 17.0 0.00 0.09 0.09 47 1011.8
20260903192035 62 196 10.0 17.0 0.00 0.09 0.09 47 1011.8
20260903191558 63 197 9.0 17.0 0.00 0.09 0.09 49 1011.8
20260903191035 63 206 8.0 17.0 0.00 0.09 0.09 48 1011.9
20260903190531 63 211 8.0 15.0 0.00 0.09 0.09 48 1012.0
20260903190051 62 214 8.0 15.0 0.00 0.09 0.09 48 1012.0
20260903185533 62 198 6.0 14.0 0.00 0.09 0.09 50 1012.1
20260903185033 62 184 8.0 16.0 0.00 0.09 0.09 50 1012.1
20260903184556 62 202 11.0 16.0 0.00 0.09 0.09 52 1012.2